Location: Pedholt
(56.0260°N, 10.2097°E)
Time: 18:26:37
(UTC+00:00)

A-11 Canister half - Pass Details

Date: 01 August 2021
Orbit: 1515 x 1685 km, 47.2° (Epoch: 20 September)

Event Time Altitude Azimuth Distance (km) Brightness Sun altitude
Rises 20:58:05 0° 275° (W) 4,884 12.3 -9.9°
Reaches altitude 10° 21:01:24 10° 269° (W) 3,914 11.6 -10.2°
Maximum altitude 21:10:34 42° 204° (SSW) 2,261 9.6 -10.9°
Enters shadow 21:18:50 13° 141° (SE) 3,678 10.3 -11.5°
Drops below altitude 10° 21:19:48 10° 138° (SE) 3,944 - -11.6°
Sets 21:23:10 0° 132° (SE) 4,925 - -11.8°
